Chippewa, MI

1:14 PM EST on December 06, 2019 (GMT -0500)
Chippewa County International

Weather History for KCIU - August, 2019

Change the Weather History Date:

Friday, August 30, 2019

  Actual Average Record
Temperature  
Mean Temperature 57 °F -  
Max Temperature 69 °F 74 °F 86 °F (2010)
Min Temperature 48 °F 51 °F 39 °F (2004)
Degree Days  
Heating Degree Days 8    
Growing Degree Days 7 (Base 50)    
Moisture  
Dew Point 47 °F    
Average Humidity 73    
Maximum Humidity 97    
Minimum Humidity 45    
Precipitation  
Precipitation 0.00 in - - ()
Sea Level Pressure  
Sea Level Pressure 29.99 in    
Wind  
Wind Speed 10 mph ()    
Max Wind Speed 22 mph    
Max Gust Speed 34 mph    
Visibility 10.0 miles    
Events      
Averages and records for this station are not official NWS values.
T = Trace of Precipitation, MM = Missing Value Source: Averaged Metar Reports

Daily Weather History Graph

Daily Weather History Graph

Search for Another Location

Airport or City:

Astronomy

Aug. 30, 2019 Rise Set
Actual Time 6:55 AM EDT 8:20 PM EDT
Civil Twilight 6:24 AM EDT 8:51 PM EDT
Nautical Twilight 5:46 AM EDT 9:29 PM EDT
Astronomical Twilight 5:05 AM EDT 10:09 PM EDT
Moon 6:51 AM EDT (8/30) 8:57 PM EDT (8/30)
Length of Visible Light 14h 27m
Length of Day
13h 25m
New Moon, 0% of the Moon is Illuminated
Aug 30
New Moon
Sep 5
First Quarter
Sep 14
Full
Sep 21
Last Quarter
Sep 28
New

Hourly Weather History & Observations

Time (EDT) Temp. Dew Point Humidity Pressure Visibility Wind Dir Wind Speed Gust Speed Precip Events Conditions
12:56 AM 53.1 °F 51.1 °F 93% 29.81 in 10.0 mi West 6.9 mph - N/A   Clear
1:56 AM 52.0 °F 51.1 °F 97% 29.82 in 10.0 mi West 6.9 mph - N/A   Clear
2:56 AM 51.1 °F 50.0 °F 96% 29.83 in 10.0 mi WNW 9.2 mph - N/A   Scattered Clouds
3:56 AM 50.0 °F 48.9 °F 96% 29.84 in 10.0 mi West 6.9 mph - N/A   Partly Cloudy
4:56 AM 50.0 °F 48.9 °F 96% 29.84 in 10.0 mi West 8.1 mph - N/A   Clear
5:56 AM 48.9 °F 48.0 °F 97% 29.85 in 10.0 mi WNW 6.9 mph - N/A   Clear
6:56 AM 48.9 °F 46.9 °F 93% 29.88 in 10.0 mi West 6.9 mph - N/A   Scattered Clouds
7:56 AM 51.1 °F 48.0 °F 89% 29.91 in 10.0 mi West 6.9 mph - N/A   Clear
8:56 AM 54.0 °F 48.9 °F 83% 29.94 in 10.0 mi West 13.8 mph 17.3 mph N/A   Clear
9:56 AM 57.9 °F 48.0 °F 70% 29.96 in 10.0 mi WNW 17.3 mph 24.2 mph N/A   Clear
10:56 AM 62.1 °F 46.0 °F 56% 29.98 in 10.0 mi WNW 17.3 mph 27.6 mph N/A   Clear
11:56 AM 64.9 °F 44.1 °F 47% 29.97 in 10.0 mi WNW 21.9 mph 34.5 mph N/A   Scattered Clouds
12:56 PM 66.9 °F 45.0 °F 45% 29.99 in 10.0 mi West 19.6 mph 27.6 mph N/A   Overcast
1:56 PM 64.0 °F 46.0 °F 52% 30.00 in 10.0 mi NW 19.6 mph 28.8 mph N/A   Mostly Cloudy
2:56 PM 60.1 °F 46.9 °F 62% 30.03 in 10.0 mi NW 21.9 mph 29.9 mph N/A   Overcast
3:56 PM 63.0 °F 46.0 °F 54% 30.05 in 10.0 mi WNW 20.7 mph 26.5 mph N/A   Overcast
4:56 PM 59.0 °F 45.0 °F 60% 30.08 in 10.0 mi NNW 15.0 mph 21.9 mph N/A   Mostly Cloudy
5:56 PM 62.1 °F 46.0 °F 56% 30.09 in 10.0 mi NW 19.6 mph 25.3 mph N/A   Overcast
6:56 PM 61.0 °F 45.0 °F 56% 30.12 in 10.0 mi WNW 12.7 mph 21.9 mph N/A   Partly Cloudy
7:56 PM 60.1 °F 45.0 °F 57% 30.13 in 10.0 mi WNW 8.1 mph - N/A   Clear
8:56 PM 55.9 °F 45.0 °F 67% 30.16 in 10.0 mi WSW 3.5 mph - N/A   Clear
9:56 PM 54.0 °F 45.0 °F 72% 30.19 in 10.0 mi SSW 5.8 mph - N/A   Clear
10:56 PM 52.0 °F 45.0 °F 77% 30.20 in 10.0 mi SW 3.5 mph - N/A   Clear
11:56 PM 51.1 °F 45.0 °F 80% 30.20 in 10.0 mi WSW 3.5 mph - N/A   Clear